Year,Month,Day,Hour,Minute,Value (Times are PST for temperature in C)
2020,03,30,16,27,9.90
2020,03,30,16,28,6.80
2020,03,30,17,40,8.10
2020,03,30,17,41,8.10
2020,03,30,17,42,8.00
2020,03,30,17,43,8.00
2020,03,30,17,44,8.00
2020,03,30,17,45,8.00
2020,03,30,17,46,8.00
2020,03,30,17,47,8.00
2020,03,30,17,48,8.00
2020,03,30,17,49,8.00
2020,03,30,17,50,8.00
2020,03,30,17,51,8.00
2020,03,30,17,52,8.10
2020,03,30,17,53,8.10
2020,03,30,17,54,8.10
2020,03,30,17,55,8.10
2020,03,30,17,56,8.10
2020,03,30,17,58,8.00
2020,03,30,17,59,8.00
2020,03,30,18,01,7.90
2020,03,30,18,02,7.90
2020,03,30,18,03,7.90
2020,03,30,18,04,7.90
2020,03,30,18,06,7.80
2020,03,30,18,07,7.80
2020,03,30,18,08,7.70
2020,03,30,18,09,7.70
2020,03,30,18,11,7.60
2020,03,30,18,12,7.60
2020,03,30,18,13,7.50
2020,03,30,18,14,7.50
2020,03,30,18,16,7.50
2020,03,30,18,17,7.50
2020,03,30,18,18,7.40
2020,03,30,18,19,7.40
2020,03,30,18,21,7.40
2020,03,30,18,22,7.40
2020,03,30,18,23,7.30
2020,03,30,18,24,7.30
2020,03,30,18,26,7.30
2020,03,30,18,27,7.30
2020,03,30,18,28,7.30
2020,03,30,18,29,7.30
2020,03,30,18,30,7.30
2020,03,30,18,32,7.30
2020,03,30,18,33,7.30
2020,03,30,18,34,7.30
2020,03,30,18,36,7.30
2020,03,30,18,37,7.30
2020,03,30,18,38,7.30
2020,03,30,18,39,7.30
2020,03,30,18,41,7.30
2020,03,30,18,42,7.20
2020,03,30,18,43,7.20
2020,03,30,18,44,7.20
2020,03,30,18,46,7.20
2020,03,30,18,47,7.20
2020,03,30,18,48,7.20
2020,03,30,18,49,7.20
2020,03,30,18,51,7.20
2020,03,30,18,52,7.20
2020,03,30,18,53,7.20
2020,03,30,18,54,7.20
2020,03,30,18,56,7.20
2020,03,30,18,57,7.20
2020,03,30,18,58,7.20
2020,03,30,18,59,7.30
2020,03,30,19,01,7.30
2020,03,30,19,02,7.30
2020,03,30,19,03,7.20
2020,03,30,19,04,7.20
2020,03,30,19,06,7.10
2020,03,30,19,07,7.10
2020,03,30,19,08,7.10
2020,03,30,19,09,7.10
2020,03,30,19,11,7.10
2020,03,30,19,12,7.00
2020,03,30,19,13,7.00
2020,03,30,19,14,7.00
2020,03,30,19,16,6.90
2020,03,30,19,17,6.90
2020,03,30,19,18,6.90
2020,03,30,19,19,6.90
2020,03,30,19,21,6.90
2020,03,30,19,22,6.90
2020,03,30,19,23,6.80
2020,03,30,19,24,6.80
2020,03,30,19,26,6.80
2020,03,30,19,27,6.80
2020,03,30,19,28,6.80
2020,03,30,19,29,6.80
2020,03,30,19,31,6.70
2020,03,30,19,32,6.70
2020,03,30,19,33,6.60
2020,03,30,19,34,6.60
2020,03,30,19,36,6.60
2020,03,30,19,37,6.60
2020,03,30,19,38,6.60
2020,03,30,19,39,6.60
2020,03,30,19,40,6.60
2020,03,30,19,41,6.40
2020,03,30,19,42,6.40
2020,03,30,19,43,6.40
2020,03,30,19,44,6.40
2020,03,30,19,45,6.40
2020,03,30,19,46,6.40
2020,03,30,19,47,6.40
2020,03,30,19,48,6.40
2020,03,30,19,49,6.40
2020,03,30,19,50,6.30
2020,03,30,19,51,6.30
2020,03,30,19,52,6.30
2020,03,30,19,53,6.30
2020,03,30,19,54,6.20
2020,03,30,19,55,6.20
2020,03,30,19,56,6.20
2020,03,30,19,57,6.20
2020,03,30,19,58,6.20
2020,03,30,19,59,6.20
2020,03,30,20,00,6.20
2020,03,30,20,01,6.20
2020,03,30,20,02,6.20
2020,03,30,20,03,6.20
2020,03,30,20,04,6.20
2020,03,30,20,05,6.20
2020,03,30,20,06,6.20
2020,03,30,20,07,6.20
2020,03,30,20,08,6.20
2020,03,30,20,09,6.20
2020,03,30,20,10,6.20
2020,03,30,20,11,6.20
2020,03,30,20,12,6.20
2020,03,30,20,13,6.20
2020,03,30,20,14,6.20
2020,03,30,20,15,6.20
2020,03,30,20,16,6.20
2020,03,30,20,17,6.20
2020,03,30,20,18,6.20
2020,03,30,20,19,6.20
2020,03,30,20,20,6.20
2020,03,30,20,21,6.20
2020,03,30,20,22,6.20
2020,03,30,20,23,6.20
2020,03,30,20,24,6.20
2020,03,30,20,25,6.20
2020,03,30,20,26,6.20
2020,03,30,20,27,6.20
2020,03,30,20,28,6.20
2020,03,30,20,29,6.20
2020,03,30,20,30,6.20
2020,03,30,20,31,6.20
2020,03,30,20,32,6.20
2020,03,30,20,33,6.20
2020,03,30,20,34,6.20
2020,03,30,20,35,6.20
2020,03,30,20,36,6.20
2020,03,30,20,37,6.20
2020,03,30,20,38,6.20
2020,03,30,20,39,6.20
2020,03,30,20,40,6.20
2020,03,30,20,41,6.20
2020,03,30,20,42,6.20
2020,03,30,20,43,6.20
2020,03,30,20,44,6.20
2020,03,30,20,45,6.20
2020,03,30,20,46,6.20
2020,03,30,20,47,6.20
2020,03,30,20,48,6.20
2020,03,30,20,49,6.20
2020,03,30,20,50,6.20
2020,03,30,20,51,6.20
2020,03,30,20,52,6.20
2020,03,30,20,53,6.20
2020,03,30,20,54,6.20
2020,03,30,20,55,6.20
2020,03,30,20,56,6.20
2020,03,30,20,57,6.20
2020,03,30,20,58,6.20
2020,03,30,20,59,6.20
2020,03,30,21,00,6.20
2020,03,30,21,01,6.20
2020,03,30,21,02,6.10
2020,03,30,21,03,6.10
2020,03,30,21,04,6.10
2020,03,30,21,05,6.10
2020,03,30,21,06,6.10
2020,03,30,21,07,6.10
2020,03,30,21,08,6.10
2020,03,30,21,09,6.00
2020,03,30,21,10,6.00
2020,03,30,21,11,6.00
2020,03,30,21,12,6.00
2020,03,30,21,13,6.00
2020,03,30,21,14,6.00
2020,03,30,21,15,6.00
2020,03,30,21,16,6.00
2020,03,30,21,17,6.00
2020,03,30,21,18,6.00
2020,03,30,21,19,6.00
2020,03,30,21,20,6.00
2020,03,30,21,21,6.00
2020,03,30,21,22,6.00
2020,03,30,21,23,5.90
2020,03,30,21,24,5.90
2020,03,30,21,25,5.90
2020,03,30,21,26,5.90
2020,03,30,21,27,5.90
2020,03,30,21,28,5.90
2020,03,30,21,29,5.90
2020,03,30,21,30,5.90
2020,03,30,21,31,5.80
2020,03,30,21,32,5.80
2020,03,30,21,33,5.80
2020,03,30,21,34,5.80
2020,03,30,21,35,5.70
2020,03,30,21,36,5.70
2020,03,30,21,37,5.70
2020,03,30,21,38,5.70
2020,03,30,21,39,5.70
2020,03,30,21,40,5.70
2020,03,30,21,41,5.70
2020,03,30,21,42,5.70
2020,03,30,21,43,5.70
2020,03,30,21,44,5.70
2020,03,30,21,45,5.60
2020,03,30,21,46,5.60
2020,03,30,21,47,5.60
2020,03,30,21,48,5.60
2020,03,30,21,49,5.60
2020,03,30,21,50,5.60
2020,03,30,21,51,5.60
2020,03,30,21,52,5.60
2020,03,30,21,54,5.60
2020,03,30,21,56,5.50
2020,03,30,21,57,5.50
2020,03,30,21,58,5.50
2020,03,30,21,59,5.50
2020,03,30,22,01,5.50
2020,03,30,22,02,5.50
2020,03,30,22,03,5.50
2020,03,30,22,04,5.50
2020,03,30,22,06,5.40
2020,03,30,22,07,5.40
2020,03,30,22,08,5.40
2020,03,30,22,09,5.40
2020,03,30,22,11,5.40
2020,03,30,22,12,5.40
2020,03,30,22,13,5.40
2020,03,30,22,14,5.40
2020,03,30,22,16,5.40
2020,03,30,22,17,5.40
2020,03,30,22,18,5.40
2020,03,30,22,19,5.40
2020,03,30,22,21,5.50
2020,03,30,22,22,5.50
2020,03,30,22,23,5.50
2020,03,30,22,24,5.50
2020,03,30,22,26,5.50
2020,03,30,22,27,5.50
2020,03,30,22,28,5.50
2020,03,30,22,29,5.50
2020,03,30,22,31,5.50
2020,03,30,22,32,5.40
2020,03,30,22,33,5.40
2020,03,30,22,34,5.40
2020,03,30,22,36,5.40
2020,03,30,22,37,5.40
2020,03,30,22,38,5.40
2020,03,30,22,39,5.40
2020,03,30,22,41,5.40
2020,03,30,22,42,5.30
2020,03,30,22,43,5.30
2020,03,30,22,44,5.30
2020,03,30,22,46,5.30
2020,03,30,22,47,5.30
2020,03,30,22,48,5.30
2020,03,30,22,49,5.30
2020,03,30,22,51,5.20
2020,03,30,22,52,5.20
2020,03,30,22,53,5.10
2020,03,30,22,54,5.10
2020,03,30,22,56,5.10
2020,03,30,22,57,5.10
2020,03,30,22,58,5.10
2020,03,30,22,59,5.10
2020,03,30,23,01,5.10
2020,03,30,23,02,5.10
2020,03,30,23,03,5.10
2020,03,30,23,04,4.90
2020,03,30,23,06,4.90
2020,03,30,23,07,4.90
2020,03,30,23,08,4.80
2020,03,30,23,09,4.80
2020,03,30,23,11,4.80
2020,03,30,23,12,4.80
2020,03,30,23,13,4.70
2020,03,30,23,14,4.70
2020,03,30,23,16,4.70
2020,03,30,23,17,4.60
2020,03,30,23,18,4.60
2020,03,30,23,19,4.60
2020,03,30,23,21,4.60
2020,03,30,23,22,4.60
2020,03,30,23,23,4.60
2020,03,30,23,24,4.60
2020,03,30,23,25,4.60
2020,03,30,23,26,4.60
2020,03,30,23,27,4.60
2020,03,30,23,28,4.60
2020,03,30,23,29,4.60
2020,03,30,23,30,4.60
2020,03,30,23,31,4.60
2020,03,30,23,32,4.60
2020,03,30,23,33,4.60
2020,03,30,23,34,4.70
2020,03,30,23,35,4.70
2020,03,30,23,36,4.70
2020,03,30,23,37,4.70
2020,03,30,23,38,4.70
2020,03,30,23,39,4.70
2020,03,30,23,40,4.70
2020,03,30,23,41,4.80
2020,03,30,23,42,4.80
2020,03,30,23,43,4.80
2020,03,30,23,44,4.80
2020,03,30,23,45,4.80
2020,03,30,23,46,4.80
2020,03,30,23,47,4.80
2020,03,30,23,48,4.80
2020,03,30,23,49,4.80
2020,03,30,23,50,4.80
2020,03,30,23,51,4.90
2020,03,30,23,52,4.90
2020,03,30,23,53,4.90
2020,03,30,23,54,4.90
2020,03,30,23,55,4.90
2020,03,30,23,56,4.90
2020,03,30,23,57,4.90
2020,03,30,23,58,4.90
2020,03,30,23,59,4.90
